Regional Weather Roundup
Issued by NWS

Home | Current Version | Previous Version | Graphics & Text | Print | Product List | Glossary On
Versions: 1 2 3 4 5 6 7 8 9 10 11 12 13 14 15 16 17 18 19 20 21 22 23 24 25 26 27 28 29 30 31 32 33 34 35 36 37 38 39 40 41 42 43 44 45 46 47 48 49 50
000
ASUS45 KTFX 280810
RWRMT
MONTANA REGIONAL WEATHER ROUNDUP
NATIONAL WEATHER SERVICE GREAT FALLS MT
200 AM MDT FRI AUG 28 2015

NOTE: "FAIR" INDICATES FEW OR NO CLOUDS BELOW 12000 FEET WITH NO
SIGNIFICANT WEATHER AND/OR OBSTRUCTIONS TO VISIBILITY.

MTZ001>007-043-280900-
WEST OF THE DIVIDE

CITY           SKY/WX    TMP DP  RH WIND       PRES   REMARKS
KALISPELL      CLOUDY    51  42  71 CALM      30.02R HAZE
MISSOULA       CLOUDY    61  41  47 CALM      30.09S HAZE
BUTTE          CLOUDY    50  45  83 SE5       30.25R
MULLAN PASS    CLEAR     61  34  36 SW8       30.21F
DEER LODGE       N/A     55  41  58 CALM      30.22R
EUREKA           N/A     66  39  37 S7        29.99S
HAMILTON         N/A     63  41  45 S6        30.11F
LIBBY            N/A     57  43  58 CALM      30.01S
PLAINS           N/A     55  41  59 CALM      30.04S
RONAN            N/A     55  43  64 SW1       30.09F
$$

MTZ008-052>055-280900-
SOUTHWEST MONTANA

CITY           SKY/WX    TMP DP  RH WIND       PRES   REMARKS
BOZEMAN        PTCLDY    58  47  66 CALM      30.16R
DILLON         PTCLDY    58  43  57 S8        30.21R
W YELLOWSTONE  CLEAR     43  39  87 CALM      30.33S
$$

MTZ009-010-012-014-046-048-049-054-280900-
EAST SLOPES AND CENTRAL MONTANA

CITY           SKY/WX    TMP DP  RH WIND       PRES   REMARKS
CUT BANK       CLOUDY    66  40  38 W13       30.01S HAZE
GREAT FALLS    CLOUDY    64  37  36 S12       30.03R HAZE
MALMSTROM AFB  CLOUDY    64  37  36 SW13      30.02R
HELENA         CLOUDY    64  41  42 CALM      30.12R SMOKE
CONRAD           N/A     68  41  37 E2        30.04R
$$

MTZ011-013-016-021-045-047-050-051-280900-
NORTH CENTRAL MONTANA

CITY           SKY/WX    TMP DP  RH WIND       PRES   REMARKS
HAVRE          CLOUDY    64  44  48 W8        29.91S
LEWISTOWN      CLOUDY    58  43  57 SE5       30.06R HAZE
N BAR RANCH      N/A     64  37  36 W8        30.08S
CHINOOK          N/A     61  46  59 CALM      29.90S
FORT BENTON      N/A     63  37  39 SW5       29.99R
$$

MTZ017>020-022>027-061-062-280900-
NORTHEAST MONTANA

CITY           SKY/WX    TMP DP  RH WIND       PRES   REMARKS
GLASGOW        CLEAR     66  53  63 NW5       29.87S
JORDAN           N/A     59  43  55 W3        29.92S
SIDNEY         PTCLDY    63  57  82 S10       29.85S
WOLF POINT     CLEAR     60  55  83 SW5       29.86R
MALTA            N/A     58  50  75 CALM      29.86S
PLENTYWOOD       N/A     70  54  56 CALM      29.86S
POPLAR           N/A     64  55  72 S3        29.86S
$$

MTZ028>42-056>058-280900-
SOUTHCENTRAL AND SOUTHEAST MONTANA

CITY           SKY/WX    TMP DP  RH WIND       PRES   REMARKS
BAKER          MOCLDY    61  56  83 CALM      29.95S
BILLINGS       PTCLDY    70  44  39 W18       30.06R
LIVINGSTON     PTCLDY    69  42  37 W23G30    30.14R
MILES CITY     MOCLDY    70  46  42 W8        29.94R
EKALAKA          N/A     69  50  50 SW3       29.98R
FORSYTH          N/A     72  46  40 SW3       29.95S
LAUREL           N/A     68  44  41 SW14      30.05S
$$

REGIONAL REPORTS...DAKOTAS

CITY           SKY/WX    TMP DP  RH WIND       PRES   REMARKS
WILLISTON      CLEAR     65  62  90 S3        29.85S
MINOT          CLEAR     70  59  68 SW14      29.81F
DICKINSON      MOCLDY    63  56  78 S12       29.90S
CROSBY           N/A     66  66 100 SW5       29.84S
BISMARCK       CLEAR     66  61  84 SW5       29.91F
GRAND FORKS    CLEAR     64  63  96 S8        29.84F
FARGO          CLEAR     68  64  87 S9        29.89R
BUFFALO SD       N/A     61  57  87 S9        29.91F
RAPID CITY     CLEAR     58  56  93 CALM      29.98F
$$

REGIONAL REPORTS...WYOMING/IDAHO/WASHINGTON

CITY           SKY/WX    TMP DP  RH WIND       PRES   REMARKS
GILLETTE       PTCLDY    66  45  46 SW14      30.08F
SHERIDAN       MOCLDY    67  43  41 CALM      30.06S
BUFFALO WY     MOCLDY    64  40  41 W6        30.13F
CODY           PTCLDY    54  45  71 W3        30.18S
YELLOWSTONE LA   N/A     39  38  96 W3        30.42S
IDAHO FALLS    CLEAR     59  42  53 SW9       30.18R
SALMON         CLOUDY    57  43  58 CALM      30.15R
BOISE          PTCLDY    74  36  25 SE6       30.02R
SPOKANE        CLOUDY    69  40  34 SE5       29.98S
$$

REGIONAL REPORTS...ALBERTA

CITY           SKY/WX    TMP DP  RH WIND       PRES   REMARKS
EDMONTON       CLEAR     59  52  77 SW6       29.77S
CALGARY        PTCLDY    61  43  51 W5        29.91S SMOKE
LETHBRIDGE     CLOUDY    68  41  37 SW15G21   29.93R HAZE
MEDICINE HAT   CLOUDY    59  43  55 SW5       29.86R HAZE
WATERTON GATE    N/A     68  36  30 W9G17       N/A
CARDSTON         N/A     64  37  36 SW8         N/A
MILK RIVER       N/A     64  39  39 W16         N/A
ONEFOUR          N/A     66  36  32 NW10        N/A
$$

REGIONAL REPORTS...SASKATCHEWAN

CITY           SKY/WX    TMP DP  RH WIND       PRES   REMARKS
SWIFT CURRENT  CLEAR     59  52  77 SW12      29.85S HAZE
SASKATOON      PTCLDY    52  52 100 S2        29.82S
CYPRESS HILLS    N/A     68  36  30 W8          N/A
VAL MARIE        N/A     50  45  81 NE1         N/A
ROCKGLEN         N/A     61  50  67 SW6         N/A
ASSINIBOIA       N/A     57  55  94 S3          N/A
$$



USA.gov is the U.S. government's official web portal to all federal, state and local government web resources and services.